When you browse on this site, cookies collect data to enhance your experience and personalize the content and advertising you see.
Visit our Privacy Policy to learn more. By continuing to use the site, you agree to this use of cookies and data.
  • In Switzerland
  • List of Countries
  • For 7 days
  • Water Temperature
  • Satellite Maps
  • Weather Map
  • Weather Widgets
  • user-avatar
    Login

    Hourly Weather Bruchsal

    Today, 18 July, Thursday

    Time Temperature Precipitation Wind Pressure Humidity
    00:00 +19°C° 0 mm 1 mps 749 mmHg 67%
    01:00 +19°C° 0 mm 1 mps 749 mmHg 70%
    02:00 +18°C° 0 mm 1 mps 749 mmHg 71%
    03:00 +18°C° 0 mm 1 mps 749 mmHg 73%
    04:00 +16°C° 0 mm 1 mps 748 mmHg 75%
    05:00 +18°C° 0 mm 1 mps 748 mmHg 73%
    06:00 +19°C° 0 mm 1 mps 748 mmHg 70%
    07:00 +20°C° 0 mm 1 mps 748 mmHg 68%
    08:00 +20°C° 0 mm 2 mps 749 mmHg 63%
    09:00 +23°C° 0 mm 2 mps 749 mmHg 58%
    10:00 +25°C° 0 mm 2 mps 749 mmHg 53%
    11:00 +26°C° 0 mm 3 mps 749 mmHg 48%
    12:00 +27°C° 0 mm 3 mps 749 mmHg 42%
    13:00 +29°C° 0 mm 3 mps 748 mmHg 37%
    14:00 +29°C° 0 mm 3 mps 748 mmHg 38%
    15:00 +29°C° 0 mm 3 mps 748 mmHg 38%
    16:00 +29°C° 0 mm 3 mps 748 mmHg 39%
    17:00 +28°C° 0 mm 3 mps 748 mmHg 44%
    18:00 +26°C° 0 mm 3 mps 748 mmHg 50%
    19:00 +25°C° 0 mm 2 mps 748 mmHg 55%
    20:00 +24°C° 0.5 mm 2 mps 749 mmHg 63%
    21:00 +21°C° 0.5 mm 2 mps 749 mmHg 70%
    22:00 +20°C° 0.5 mm 2 mps 749 mmHg 78%
    23:00 +20°C° 0.2 mm 2 mps 749 mmHg 80%

    Tomorrow, 19 July, Friday

    Time Temperature Precipitation Wind Pressure Humidity
    00:00 +19°C° 0.2 mm 2 mps 750 mmHg 82%
    01:00 +19°C° 0.2 mm 2 mps 750 mmHg 84%
    02:00 +18°C° 0 mm 2 mps 750 mmHg 84%
    03:00 +18°C° 0 mm 2 mps 750 mmHg 84%
    04:00 +17°C° 0 mm 2 mps 750 mmHg 84%
    05:00 +18°C° 0 mm 2 mps 750 mmHg 82%
    06:00 +20°C° 0 mm 1 mps 750 mmHg 80%
    07:00 +20°C° 0 mm 1 mps 750 mmHg 79%
    08:00 +21°C° 0 mm 2 mps 751 mmHg 72%
    09:00 +24°C° 0 mm 2 mps 751 mmHg 65%
    10:00 +25°C° 0 mm 2 mps 751 mmHg 59%
    11:00 +26°C° 0.2 mm 3 mps 751 mmHg 55%
    12:00 +27°C° 0.2 mm 3 mps 750 mmHg 51%
    13:00 +28°C° 0.2 mm 4 mps 750 mmHg 47%
    14:00 +28°C° 0 mm 3 mps 750 mmHg 48%
    15:00 +28°C° 0 mm 3 mps 750 mmHg 48%
    16:00 +28°C° 0 mm 3 mps 750 mmHg 49%
    17:00 +27°C° 0 mm 3 mps 750 mmHg 53%
    18:00 +27°C° 0 mm 2 mps 750 mmHg 58%
    19:00 +26°C° 0 mm 2 mps 750 mmHg 63%
    20:00 +24°C° 0 mm 1 mps 750 mmHg 68%
    21:00 +23°C° 0 mm 1 mps 751 mmHg 73%
    22:00 +22°C° 0 mm 1 mps 751 mmHg 77%
    23:00 +21°C° 0 mm 1 mps 751 mmHg 79%

    Day after tomorrow, 20 July, Saturday

    Time Temperature Precipitation Wind Pressure Humidity
    00:00 +21°C° 0 mm 1 mps 750 mmHg 81%
    01:00 +20°C° 0 mm 1 mps 750 mmHg 82%
    02:00 +20°C° 0 mm 1 mps 750 mmHg 83%
    03:00 +20°C° 0 mm 1 mps 750 mmHg 84%
    04:00 +19°C° 0 mm 1 mps 750 mmHg 85%
    05:00 +20°C° 0 mm 1 mps 750 mmHg 81%
    06:00 +21°C° 0 mm 1 mps 750 mmHg 78%
    07:00 +22°C° 0 mm 1 mps 750 mmHg 74%
    08:00 +24°C° 0 mm 1 mps 750 mmHg 67%
    09:00 +26°C° 0 mm 2 mps 750 mmHg 59%
    10:00 +28°C° 0 mm 2 mps 750 mmHg 51%
    11:00 +29°C° 0 mm 2 mps 750 mmHg 47%
    12:00 +31°C° 0 mm 3 mps 750 mmHg 43%
    13:00 +33°C° 0 mm 3 mps 750 mmHg 39%
    14:00 +33°C° 0 mm 3 mps 750 mmHg 39%
    15:00 +34°C° 0 mm 4 mps 749 mmHg 38%
    16:00 +34°C° 0 mm 4 mps 749 mmHg 38%
    17:00 +33°C° 0 mm 4 mps 749 mmHg 42%
    18:00 +32°C° 0 mm 4 mps 749 mmHg 46%
    19:00 +29°C° 0 mm 3 mps 749 mmHg 50%
    20:00 +28°C° 0.1 mm 3 mps 750 mmHg 57%
    21:00 +26°C° 0.1 mm 3 mps 750 mmHg 63%
    22:00 +25°C° 0.1 mm 3 mps 751 mmHg 69%
    23:00 +24°C° 0.1 mm 3 mps 751 mmHg 71%

    21 July, Sunday

    Time Temperature Precipitation Wind Pressure Humidity
    00:00 +24°C° 0.1 mm 3 mps 751 mmHg 74%
    01:00 +23°C° 0.1 mm 2 mps 752 mmHg 76%
    02:00 +23°C° 0 mm 2 mps 752 mmHg 77%
    03:00 +21°C° 0 mm 2 mps 752 mmHg 78%
    04:00 +21°C° 0 mm 2 mps 752 mmHg 79%
    05:00 +22°C° 0 mm 1 mps 753 mmHg 77%
    06:00 +22°C° 0 mm 1 mps 753 mmHg 75%
    07:00 +23°C° 0 mm 1 mps 754 mmHg 73%
    08:00 +24°C° 0 mm 1 mps 754 mmHg 65%
    09:00 +26°C° 0 mm 1 mps 754 mmHg 58%
    10:00 +27°C° 0 mm 1 mps 755 mmHg 50%
    11:00 +28°C° 0 mm 2 mps 755 mmHg 48%
    12:00 +29°C° 0 mm 2 mps 754 mmHg 46%
    13:00 +31°C° 0 mm 3 mps 754 mmHg 43%
    14:00 +31°C° 0 mm 3 mps 754 mmHg 42%
    15:00 +31°C° 0 mm 3 mps 754 mmHg 40%
    16:00 +33°C° 0 mm 3 mps 754 mmHg 39%
    17:00 +31°C° 0 mm 2 mps 754 mmHg 43%
    18:00 +30°C° 0 mm 2 mps 754 mmHg 46%
    19:00 +29°C° 0 mm 2 mps 754 mmHg 50%
    20:00 +27°C° 0 mm 1 mps 754 mmHg 54%
    21:00 +25°C° 0 mm 1 mps 754 mmHg 59%
    22:00 +23°C° 0 mm 1 mps 755 mmHg 63%
    23:00 +23°C° 0 mm 1 mps 755 mmHg 65%

    22 July, Monday

    Time Temperature Precipitation Wind Pressure Humidity
    00:00 +20°C° 0 mm 0 mps 755 mmHg 68%
    01:00 +20°C° 0 mm 0 mps 755 mmHg 70%
    02:00 +19°C° 0 mm 0 mps 755 mmHg 72%
    03:00 +19°C° 0 mm 0 mps 755 mmHg 73%
    04:00 +18°C° 0 mm 0 mps 755 mmHg 75%
    05:00 +21°C° 0 mm 1 mps 755 mmHg 72%
    06:00 +22°C° 0 mm 1 mps 755 mmHg 69%
    07:00 +23°C° 0 mm 1 mps 755 mmHg 67%
    08:00 +25°C° 0 mm 1 mps 755 mmHg 61%
    09:00 +27°C° 0 mm 1 mps 755 mmHg 55%
    10:00 +29°C° 0 mm 1 mps 755 mmHg 50%
    11:00 +30°C° 0 mm 1 mps 755 mmHg 45%
    12:00 +32°C° 0 mm 1 mps 754 mmHg 41%
    13:00 +33°C° 0 mm 1 mps 754 mmHg 36%
    14:00 +33°C° 0 mm 1 mps 754 mmHg 35%
    15:00 +33°C° 0 mm 1 mps 754 mmHg 33%
    16:00 +33°C° 0 mm 1 mps 754 mmHg 32%
    17:00 +32°C° 0 mm 2 mps 754 mmHg 38%
    18:00 +31°C° 0 mm 2 mps 754 mmHg 44%
    19:00 +29°C° 0 mm 2 mps 754 mmHg 50%
    20:00 +28°C° 0 mm 2 mps 754 mmHg 54%
    21:00 +26°C° 0 mm 2 mps 754 mmHg 59%
    22:00 +25°C° 0 mm 2 mps 754 mmHg 63%
    23:00 +24°C° 0 mm 2 mps 754 mmHg 65%

    23 July, Tuesday

    Time Temperature Precipitation Wind Pressure Humidity
    00:00 +23°C° 0 mm 2 mps 754 mmHg 68%
    01:00 +23°C° 0 mm 2 mps 754 mmHg 70%
    02:00 +21°C° 0 mm 2 mps 754 mmHg 71%
    03:00 +21°C° 0 mm 2 mps 754 mmHg 72%
    04:00 +20°C° 0 mm 2 mps 754 mmHg 73%
    05:00 +21°C° 0 mm 2 mps 754 mmHg 71%
    06:00 +21°C° 0 mm 2 mps 754 mmHg 69%
    07:00 +23°C° 0 mm 2 mps 754 mmHg 68%
    08:00 +25°C° 0 mm 3 mps 754 mmHg 62%
    09:00 +27°C° 0 mm 3 mps 754 mmHg 57%
    10:00 +28°C° 0 mm 3 mps 754 mmHg 52%
    11:00 +30°C° 0 mm 3 mps 754 mmHg 47%
    12:00 +31°C° 0 mm 3 mps 753 mmHg 43%
    13:00 +34°C° 0 mm 3 mps 753 mmHg 39%
    14:00 +34°C° 0 mm 3 mps 753 mmHg 38%
    15:00 +34°C° 0 mm 3 mps 752 mmHg 38%
    16:00 +35°C° 0 mm 3 mps 752 mmHg 37%
    17:00 +33°C° 0 mm 3 mps 752 mmHg 42%
    18:00 +31°C° 0 mm 3 mps 752 mmHg 47%
    19:00 +30°C° 0 mm 3 mps 752 mmHg 52%
    20:00 +29°C° 0 mm 3 mps 752 mmHg 54%
    21:00 +27°C° 0 mm 3 mps 752 mmHg 55%
    22:00 +26°C° 0 mm 3 mps 752 mmHg 57%
    23:00 +25°C° 0 mm 2 mps 752 mmHg 60%
    Show more